Lid_Strength_Index
-1 -1 -1 2 10 9 11 10 6 7 6 4 4 5 6 5 7 10 1 0 -0 0 -1 -1 -1 -1 -1 -1 -1 -1 -1 -2 -2 -2 -2 -2 -2 -2 -2 -2 -2 -2 -2 -2 -2 -2 -2 -2 -2
-1 -0 1 5 11 13 11 7 8 6 5 4 5 5 6 7 4 4 3 0 -0 -0 -1 -1 -1 -1 -1 -1 -1 -1 -2 -2 -2 -2 -2 -2 -2 -2 -2 -2 -2 -2 -2 -2 -2 -2 -2 -2 -2
-0 0 4 7 10 13 11 7 7 5 5 5 5 4 5 6 4 3 1 0 -0 -0 -0 -1 -1 -1 -2 -1 -1 -2 -2 -2 -2 -2 -2 -2 -2 -2 -2 -2 -2 -2 -2 -2 -2 -2 -2 -2 -2
1 2 4 10 10 8 8 6 6 6 5 4 4 6 4 2 3 1 0 -0 0 0 -0 -1 -1 -2 -2 -2 -2 -2 -2 -2 -2 -2 -2 -2 -2 -2 -2 -2 -2 -2 -2 -2 -2 -2 -2 -2 -2
1 4 9 9 9 7 6 5 5 6 5 5 5 6 6 3 1 1 0 0 1 0 -0 -1 -1 -2 -2 -1 -2 -2 -2 -2 -2 -2 -2 -2 -2 -2 -2 -2 -2 -2 -2 -2 -2 -2 -2 -2 -2
5 5 10 11 9 7 6 4 5 6 5 5 6 6 6 2 2 1 1 1 0 0 -0 -1 -1 -1 -1 -2 -2 -2 -2 -2 -2 -2 -2 -2 -2 -2 -2 -2 -2 -2 -2 -2 -2 -2 -2 -2 -2
7 8 10 9 9 8 7 5 5 6 6 5 4 6 5 4 2 1 1 0 1 0 -0 -0 -0 -0 -1 -2 -2 -2 -2 -2 -2 -2 -2 -2 -2 -2 -2 -2 -2 -2 -2 -2 -2 -2 -2 -2 -2
5 7 10 9 9 9 6 6 5 5 6 3 3 7 7 4 2 1 1 1 1 0 0 -0 -0 0 0 -1 -2 -2 -2 -2 -2 -2 -2 -2 -2 -2 -2 -2 -2 -2 -2 -2 -2 -2 -2 -2 -2
3 10 10 9 9 8 6 7 5 4 5 4 4 4 3 2 2 2 2 2 1 1 1 -0 0 -0 1 1 -1 -2 -2 -2 -2 -2 -2 -1 -1 -0 -1 -2 -2 -2 -1 -2 -2 -2 -2 -1 -1
7 9 9 6 6 7 7 6 6 6 6 6 4 3 3 3 3 4 4 4 3 2 1 0 -0 -0 0 -0 -1 -1 -1 -1 -1 -1 -1 -1 -0 0 0 -0 -1 -1 -0 -1 -1 -0 -1 -0 1
7 10 6 6 6 6 6 6 5 6 7 6 5 4 4 4 4 4 4 3 3 2 1 0 0 -0 -0 -0 -1 -1 -1 -1 -1 -1 -0 -0 1 1 1 1 2 2 1 2 2 2 2 2 2
9 7 6 6 5 6 7 5 7 6 5 4 4 3 3 5 4 4 4 3 3 2 1 0 0 1 -0 -1 -1 -1 -1 -1 0 0 1 1 2 3 3 3 3 3 3 3 2 2 2 2 2
8 7 6 6 6 6 6 7 7 6 5 4 3 3 3 4 4 3 3 2 2 2 1 1 1 1 -0 -0 -1 -1 0 1 1 1 2 2 3 4 4 4 4 5 4 3 3 3 3 3 3
6 7 7 6 6 6 7 7 6 6 4 4 4 4 3 3 4 4 3 3 3 2 2 1 1 1 0 -0 -0 1 1 1 1 2 2 3 3 4 4 5 5 6 5 4 3 4 4 4 4
6 9 7 7 7 7 6 9 9 5 4 5 5 4 4 3 3 4 3 3 3 2 1 2 1 1 1 -0 0 1 1 1 2 3 3 3 3 4 5 6 6 6 6 6 5 5 5 5 5
8 8 13 8 7 7 7 12 7 5 5 6 5 5 4 3 3 3 2 2 2 2 2 2 2 1 1 1 0 1 1 2 2 3 3 3 4 5 5 6 6 7 7 6 6 5 6 6 6
10 14 12 10 7 7 9 11 7 5 5 6 5 5 4 4 3 2 3 2 2 2 2 2 2 2 1 1 1 1 1 2 3 3 4 4 4 5 6 6 6 7 6 7 7 7 6 6 7
14 14 11 11 9 8 9 10 7 6 5 6 5 5 5 4 4 2 2 2 2 1 2 1 2 1 2 2 2 1 1 2 3 4 4 4 5 5 6 6 6 7 7 7 7 7 6 6 7
9 11 11 10 7 10 10 10 8 6 6 6 6 5 5 4 3 2 3 2 2 2 2 2 2 2 3 2 3 2 2 3 4 4 4 5 5 6 6 6 7 6 7 7 7 7 8 8 7
11 13 12 9 8 9 10 10 8 7 6 6 6 6 5 4 4 3 3 3 3 2 2 2 3 2 3 2 2 2 2 3 4 4 5 5 5 5 6 6 7 7 7 7 7 7 8 8 8
12 14 13 12 9 9 11 12 10 7 6 6 5 5 5 5 4 4 3 3 3 3 3 2 2 3 3 2 2 3 4 4 5 6 6 5 5 5 6 6 7 7 7 7 7 7 7 9 9
15 10 11 12 13 18 12 18 11 9 8 7 6 5 5 5 4 4 3 4 3 3 2 2 2 4 3 3 3 4 6 7 6 6 5 6 5 6 6 6 7 7 7 7 8 8 7 7 10
12 9 11 11 14 14 15 18 12 8 9 8 7 6 5 4 4 4 3 3 3 2 2 2 3 4 3 4 4 5 6 6 7 7 6 6 6 6 7 7 7 8 8 8 8 8 8 8 9
7 9 10 11 14 20 15 15 14 11 9 8 7 6 5 5 4 4 3 3 3 2 2 3 3 4 3 4 5 4 5 7 8 7 7 6 6 7 7 7 8 8 8 8 8 8 9 9 10
10 13 19 20 21 20 13 15 13 9 8 7 7 6 5 4 4 4 4 4 3 3 3 3 4 4 4 4 5 4 5 7 7 7 7 7 7 8 8 8 8 9 9 9 9 9 9 9 10
11 14 18 22 19 18 12 18 12 8 7 7 6 5 4 4 4 4 4 4 3 3 3 3 3 5 4 5 5 4 5 7 7 7 7 7 7 8 8 9 9 9 9 9 9 9 9 9 10
12 15 11 16 16 17 13 11 9 8 8 7 6 5 5 4 4 4 4 3 3 3 3 3 3 3 4 4 4 4 6 6 7 6 7 7 7 8 9 9 9 9 9 9 9 10 10 10 10
11 9 17 16 21 20 15 14 13 10 9 7 7 6 5 4 4 4 4 3 3 3 2 3 3 3 4 4 5 4 6 6 6 6 7 8 8 9 9 9 9 9 9 10 10 10 10 10 10
14 15 14 13 15 19 17 15 9 9 8 8 7 6 5 5 4 4 4 3 3 3 3 2 2 3 4 4 5 5 6 6 6 6 7 8 9 11 10 10 10 10 10 11 10 11 10 10 11
11 13 13 16 17 14 14 14 7 7 7 7 7 6 5 5 5 4 3 3 3 3 3 3 2 3 4 4 4 5 6 7 7 6 7 8 10 11 10 10 10 11 10 10 11 11 10 11 12